Weather reports worldwide

Advertisment
Aberdeen/Dyce, United Kingdom (3091): temperature & dewpoint: 06.12.2018 13:00:00 - 12.12.2018 13:00:00 (GMT)Aberdeen/Dyce, United Kingdom (3091): temperature -20cm & temperature -100cm: 06.12.2018 13:00:00 - 12.12.2018 13:00:00 (GMT)Aberdeen/Dyce, United Kingdom (3091): wind speed & gusts: 06.12.2018 13:00:00 - 12.12.2018 13:00:00 (GMT)Aberdeen/Dyce, United Kingdom (3091): wind direction: 06.12.2018 13:00:00 - 12.12.2018 13:00:00 (GMT)Aberdeen/Dyce, United Kingdom (3091): reduced air pressure: 06.12.2018 13:00:00 - 12.12.2018 13:00:00 (GMT)Aberdeen/Dyce, United Kingdom (3091): visibility: 06.12.2018 13:00:00 - 12.12.2018 13:00:00 (GMT)Aberdeen/Dyce, United Kingdom (3091): sunshine duration: 06.12.2018 13:00:00 - 12.12.2018 13:00:00 (GMT)Aberdeen/Dyce, United Kingdom (3091): precipitation: 06.12.2018 13:00:00 - 12.12.2018 13:00:00 (GMT)
Date & Time tt [°C] td [°C] tt -20cm [°C] tt -100cm [°C] ff [km/h] ff [kn] fx [km/h] fx [kn] dd ppp [hPa] vv [km] sd [min] rr [mm]
12.12.2018 13:00:00 7,7 3,9 - - 35 19 55 30 SSE 1020,3 10 0 0,0
12.12.2018 12:00:00 7,6 4,0 - - 39 21 57 31 SSE 1020,8 10 0 0,0
12.12.2018 11:00:00 7,7 5,0 - - 34 18 54 29 SSE 1021,1 10 0 0,0
12.12.2018 10:00:00 7,5 5,2 - - 35 19 50 27 SSE 1020,9 10 0 0,0
12.12.2018 09:00:00 7,4 5,2 6,0 7,9 35 19 50 27 SSE 1020,9 10 0 0,0
12.12.2018 08:00:00 7,2 5,2 - - 37 20 55 30 S 1020,5 10 0 0,0
12.12.2018 07:00:00 7,3 5,4 - - 35 19 52 28 SSE 1020,1 10 0 0,0
12.12.2018 06:00:00 7,2 5,5 - - 31 17 - - SSE 1019,9 9 0 0,0
12.12.2018 05:00:00 6,9 5,5 - - 34 18 52 28 S 1019,7 11 0 0,0
12.12.2018 04:00:00 7,0 5,6 - - 28 15 - - S 1019,9 9 0 0,0
12.12.2018 03:00:00 7,1 5,8 - - 31 17 46 25 S 1020,0 8 0 0,0
12.12.2018 02:00:00 7,0 5,7 - - 29 16 46 25 S 1019,9 8 0 0,0
12.12.2018 01:00:00 7,1 6,0 - - 29 16 46 25 SSE 1020,1 7 0 0,0
12.12.2018 00:00:00 7,8 6,6 - - 29 16 - - S 1020,0 10 - 0,0
11.12.2018 23:00:00 7,6 6,6 - - 28 15 - - S 1020,0 10 0 0,0
11.12.2018 22:00:00 7,4 6,6 - - 29 16 46 25 S 1019,9 7 0 0,2
11.12.2018 21:00:00 7,4 7,0 - - 29 16 - - S 1019,9 5 0 0,0
11.12.2018 20:00:00 7,3 6,9 - - 26 14 - - S 1020,0 3,7 0 0,0
11.12.2018 19:00:00 7,2 6,8 - - 26 14 - - SSE 1020,1 3,7 0 0,0
11.12.2018 18:00:00 7,3 6,5 - - 22 12 - - S 1020,0 8 0 0,0
11.12.2018 17:00:00 6,7 5,5 - - 18 10 - - S 1020,1 10 0 0,0
11.12.2018 16:00:00 6,5 5,3 - - 18 10 - - S 1020,1 10 0 0,0
11.12.2018 15:00:00 6,7 5,2 - - 21 11 - - S 1020,2 10 0 -
11.12.2018 14:00:00 6,5 5,2 - - 28 15 - - S 1020,7 22 0 0,0
11.12.2018 13:00:00 6,7 5,1 - - 22 12 - - S 1021,2 20 0 0,0
11.12.2018 12:00:00 7,2 5,2 - - 21 11 - - S 1021,6 28 0 0,0
11.12.2018 11:00:00 6,7 4,9 - - 18 10 - - S 1022,2 35 0 0,0
11.12.2018 10:00:00 6,2 4,4 - - 21 11 - - S 1022,5 28 0 0,0
11.12.2018 09:00:00 5,4 3,4 5,9 8,0 21 11 - - S 1022,6 10 0 0,0
11.12.2018 08:00:00 4,8 3,0 - - 13 7 - - S 1022,6 10 0 0,0
11.12.2018 07:00:00 4,8 2,4 - - 13 7 - - S 1022,9 10 0 0,0
11.12.2018 06:00:00 3,5 1,5 - - 9 5 - - SSE 1023,1 10 0 0,0
11.12.2018 05:00:00 3,2 0,8 - - 16 9 - - S 1023,4 10 0 0,2
11.12.2018 04:00:00 2,3 0,8 - - 11 6 - - S 1023,8 10 0 0,0
11.12.2018 03:00:00 -1,1 -1,9 - - 4 2 - - - 1024,2 10 0 0,0
11.12.2018 02:00:00 -1,6 -2,1 - - 2 1 - - - 1024,5 10 0 0,0
11.12.2018 01:00:00 -2,3 -2,8 - - 2 1 - - ENE 1025,0 10 0 0,0
11.12.2018 00:00:00 -2,1 -2,5 - - 2 1 - - - 1025,3 10 - 0,0
10.12.2018 23:00:00 -2,5 -3,3 - - 4 2 - - NNE 1025,8 35 0 0,0
10.12.2018 22:00:00 -2,4 -2,9 - - 4 2 - - N 1026,2 10 0 0,0
10.12.2018 21:00:00 -2,2 -2,9 - - 4 2 - - N 1026,3 10 0 0,0
10.12.2018 20:00:00 -2,0 -3,1 - - 2 1 - - - 1026,2 10 0 0,0
10.12.2018 19:00:00 -0,6 -2,0 - - 2 1 - - SW 1026,1 10 0 0,0
10.12.2018 18:00:00 0,4 -1,7 - - 2 1 - - - 1026,3 10 0 0,0
10.12.2018 17:00:00 1,7 -1,3 - - 4 2 - - - 1025,8 10 0 0,0
10.12.2018 16:00:00 2,6 -1,1 - - 11 6 - - W 1025,9 10 0 0,0
10.12.2018 15:00:00 2,8 -1,0 - - 9 5 - - W 1025,8 10 24 0,0
10.12.2018 14:00:00 4,3 -0,6 - - 13 7 - - W 1025,7 10 60 0,0
10.12.2018 13:00:00 4,5 -0,4 - - 11 6 - - W 1025,4 50 12 0,0
10.12.2018 12:00:00 4,3 -0,5 - - 13 7 - - W 1025,0 10 60 0,0
10.12.2018 11:00:00 3,7 -0,9 - - 13 7 - - W 1024,8 45 54 0,0
10.12.2018 10:00:00 3,1 -1,2 - - 15 8 - - WNW 1024,3 10 0 0,0
10.12.2018 09:00:00 3,0 -0,7 6,2 8,0 18 10 - - WNW 1023,7 10 0 0,0
10.12.2018 08:00:00 2,5 -0,6 - - 15 8 - - W 1023,2 10 0 0,0
10.12.2018 07:00:00 3,0 -0,5 - - 18 10 - - WNW 1022,5 10 0 0,0
10.12.2018 06:00:00 3,1 -0,7 - - 26 14 - - WNW 1021,5 10 0 0,0
10.12.2018 05:00:00 3,1 -0,4 - - 22 12 - - WNW 1020,6 10 0 0,0
10.12.2018 04:00:00 3,2 -0,3 - - 21 11 - - WNW 1020,4 10 0 0,0
10.12.2018 03:00:00 3,3 -0,2 - - 24 13 - - WNW 1019,6 10 0 0,0
10.12.2018 02:00:00 3,3 -0,1 - - 24 13 - - WNW 1019,1 10 0 0,0
10.12.2018 01:00:00 3,0 0,2 - - 22 12 - - WNW 1018,4 10 0 0,0
10.12.2018 00:00:00 3,1 0,4 - - 22 12 - - WNW 1017,7 10 - 0,0
09.12.2018 23:00:00 2,7 1,1 - - 21 11 - - WNW 1017,1 10 0 0,4
09.12.2018 22:00:00 2,6 0,3 - - 21 11 - - N 1017,1 6 0 0,0
09.12.2018 21:00:00 3,0 0,5 - - 18 10 - - W 1015,5 10 0 0,0
09.12.2018 20:00:00 4,0 1,0 - - 22 12 - - NW 1015,1 11 0 0,0
09.12.2018 19:00:00 2,9 -0,3 - - 9 5 - - WNW 1014,3 35 0 0,0
09.12.2018 18:00:00 2,9 0,1 - - 18 10 - - WNW 1013,2 10 0 0,0
09.12.2018 17:00:00 3,2 -0,5 - - 11 6 - - WNW 1012,2 10 0 0,0
09.12.2018 16:00:00 4,2 0,0 - - 15 8 - - WNW 1011,3 10 0 0,0
09.12.2018 15:00:00 4,7 0,4 - - 16 9 - - WNW 1009,8 10 12 0,0
09.12.2018 14:00:00 5,0 1,2 - - 22 12 - - NW 1008,7 20 30 0,0
09.12.2018 13:00:00 5,4 0,7 - - 28 15 - - NW 1007,4 35 36 0,0
09.12.2018 12:00:00 5,4 0,0 - - 28 15 - - NW 1006,5 10 24 0,0
09.12.2018 11:00:00 4,3 -0,8 - - 21 11 - - WNW 1005,5 10 48 0,0
09.12.2018 10:00:00 4,4 0,7 - - 21 11 - - WNW 1004,0 10 12 0,0
09.12.2018 09:00:00 4,1 2,4 6,4 8,0 18 10 - - WNW 1002,5 10 0 0,0
09.12.2018 08:00:00 4,5 2,7 - - 22 12 - - NNW 1000,6 25 0 0,0
09.12.2018 07:00:00 4,5 2,4 - - 35 19 54 29 NW 998,8 10 0 0,2
09.12.2018 06:00:00 4,8 2,9 - - 29 16 - - NW 997,1 10 0 0,4
09.12.2018 05:00:00 5,1 2,2 - - 26 14 - - NW 995,2 25 0 0,0
09.12.2018 04:00:00 5,2 2,4 - - 24 13 - - NW 993,7 10 0 0,0
09.12.2018 03:00:00 5,1 3,1 - - 21 11 - - WNW 992,5 10 0 0,0
09.12.2018 02:00:00 5,1 3,7 - - 18 10 - - NW 991,5 6 0 0,2
09.12.2018 01:00:00 5,5 3,6 - - 24 13 - - NW 990,2 9 0 0,2
09.12.2018 00:00:00 5,2 3,5 - - 15 8 - - WNW 989,1 10 - 0,0
08.12.2018 23:00:00 5,3 3,5 - - 18 10 - - WNW 988,2 10 0 0,0
08.12.2018 22:00:00 5,8 3,7 - - 22 12 - - WNW 987,5 10 0 0,0
08.12.2018 21:00:00 6,0 3,9 - - 24 13 - - NW 986,9 50 0 0,0
08.12.2018 20:00:00 5,9 4,1 - - 22 12 - - NW 986,5 10 0 0,0
08.12.2018 19:00:00 6,1 4,1 - - 18 10 - - NW 985,9 45 0 0,0
08.12.2018 18:00:00 6,4 4,2 - - 21 11 - - WNW 985,6 10 0 0,0
08.12.2018 17:00:00 6,5 5,0 - - 16 9 - - WNW 985,9 50 0 0,2
08.12.2018 16:00:00 7,4 4,4 - - 16 9 - - WNW 985,7 10 0 0,0
08.12.2018 15:00:00 7,7 4,2 - - 21 11 - - W 985,7 10 0 0,0
08.12.2018 14:00:00 8,4 4,1 - - 26 14 - - WNW 986,0 50 0 0,0
08.12.2018 13:00:00 8,4 4,3 - - 22 12 - - WNW 985,8 50 12 0,0
08.12.2018 12:00:00 7,9 4,8 - - 24 13 - - WNW 986,1 10 0 0,0
08.12.2018 11:00:00 8,4 4,2 - - 22 12 46 25 W 985,9 10 30 0,0
08.12.2018 10:00:00 7,8 3,8 - - 28 15 48 26 WNW 985,3 10 36 0,0
08.12.2018 09:00:00 7,7 4,0 6,2 8,2 31 17 57 31 WNW 984,5 10 0 0,0
08.12.2018 08:00:00 7,6 4,2 - - 35 19 59 32 WNW 983,6 10 0 0,0
08.12.2018 07:00:00 7,7 3,9 - - 39 21 63 34 WNW 982,3 10 0 0,0
08.12.2018 06:00:00 7,8 3,4 - - 39 21 67 36 WNW 981,0 10 0 0,0
08.12.2018 05:00:00 7,7 3,6 - - 29 16 57 31 W 980,3 10 0 0,0
08.12.2018 04:00:00 7,7 3,3 - - 34 18 61 33 W 979,3 10 0 0,0
08.12.2018 03:00:00 7,9 2,9 - - 34 18 55 30 WNW 978,5 45 0 0,0
08.12.2018 02:00:00 8,3 3,0 - - 29 16 52 28 W 978,1 50 0 0,0
08.12.2018 01:00:00 8,3 3,1 - - 28 15 54 29 WSW 977,2 10 0 0,0
08.12.2018 00:00:00 8,2 3,1 - - 16 9 - - SW 977,0 10 - 0,0
07.12.2018 23:00:00 7,6 2,9 - - 18 10 - - SW 976,9 10 0 0,0
07.12.2018 22:00:00 7,0 2,7 - - 18 10 - - SW 977,1 10 0 0,0
07.12.2018 21:00:00 7,4 3,4 - - 18 10 - - SW 977,5 10 0 0,0
07.12.2018 20:00:00 6,2 3,0 - - 21 11 46 25 SSW 977,5 10 0 0,0
07.12.2018 19:00:00 5,8 3,2 - - 31 17 46 25 SSW 977,8 10 0 0,0
07.12.2018 18:00:00 5,6 2,9 - - 28 15 52 28 S 978,9 10 0 0,0
07.12.2018 17:00:00 5,5 2,3 - - 31 17 48 26 SSW 979,5 10 0 0,0
07.12.2018 16:00:00 5,6 2,2 - - 28 15 50 27 SSW 980,2 10 0 0,0
07.12.2018 15:00:00 6,3 2,0 - - 28 15 50 27 SSW 981,3 10 36 0,0
07.12.2018 14:00:00 7,1 2,2 - - 31 17 55 30 SW 981,4 10 60 0,0
07.12.2018 13:00:00 7,2 2,7 - - 35 19 54 29 SW 982,0 30 60 0,0
07.12.2018 12:00:00 7,5 3,0 - - 29 16 - - SW 983,2 45 30 0,0
07.12.2018 11:00:00 7,1 2,3 - - 28 15 - - SW 984,0 10 0 0,0
07.12.2018 10:00:00 7,2 3,0 - - 24 13 - - SSW 984,4 10 0 0,0
07.12.2018 09:00:00 7,8 4,0 6,0 8,4 18 10 - - SSW 985,1 10 0 0,0
07.12.2018 08:00:00 8,1 6,4 - - 16 9 - - SSW 985,0 40 0 0,0
07.12.2018 07:00:00 9,3 7,9 - - 28 15 50 27 S 985,1 10 0 0,0
07.12.2018 06:00:00 8,8 8,4 - - 29 16 48 26 SSE 986,8 4,6 0 0,6
07.12.2018 05:00:00 7,9 7,2 - - 29 16 46 25 SSE 988,8 6 0 0,0
07.12.2018 04:00:00 7,9 6,2 - - 28 15 - - S 991,4 14 0 0,2
07.12.2018 03:00:00 7,0 5,9 - - 21 11 - - S 993,8 10 0 0,0
07.12.2018 02:00:00 6,5 5,6 - - 11 6 - - SSE 996,1 9 0 0,0
07.12.2018 01:00:00 7,0 5,3 - - 22 12 - - S 998,0 10 0 0,0
07.12.2018 00:00:00 7,2 3,3 - - 21 11 - - SSW 1000,1 10 - 0,0
06.12.2018 23:00:00 6,6 3,6 - - 8 4 - - - 1000,1 10 0 0,0
06.12.2018 22:00:00 7,0 3,6 - - 16 9 - - SW 1001,4 10 0 0,0
06.12.2018 21:00:00 7,7 3,0 - - 16 9 - - WSW 1001,4 10 0 0,0
06.12.2018 20:00:00 7,3 3,2 - - 15 8 - - SSW 1001,5 10 0 0,0
06.12.2018 19:00:00 5,6 3,0 - - 9 5 - - W 1000,8 10 0 0,0
06.12.2018 18:00:00 6,4 3,2 - - 5 3 - - WSW 1000,9 27 0 0,0
06.12.2018 17:00:00 7,9 3,9 - - 5 3 - - - 1000,2 10 0 0,0
06.12.2018 16:00:00 10,5 5,1 - - 24 13 - - WNW 998,9 30 0 0,0
06.12.2018 15:00:00 10,1 7,2 - - 13 7 - - SW 997,8 10 24 0,0
06.12.2018 14:00:00 10,8 8,1 - - 13 7 - - SSW 997,7 10 60 0,0
06.12.2018 13:00:00 9,3 7,7 - - 16 9 - - S 997,7 10 30 0,0

tt = temperature
td = dewpoint
tt -20cm = temperature -20cm
tt -100cm = temperature -100cm
ff = wind speed
fx = gusts
dd = wind direction
ppp = reduced air pressure
vv = visibility
sd = sunshine duration
rr = precipitation

Next stations